Hill Air Force Base, UT

1:11 PM MDT on July 25, 2016 (GMT -0600)
Hill Air Force Base

Weather History for KHIF - October, 2011

Change the Weather History Date:

Tuesday, October 25, 2011

  Actual Average Record
Temperature  
Mean Temperature 44 °F -  
Max Temperature 50 °F 52 °F 76 °F (2014)
Min Temperature 37 °F 36 °F 26 °F (1996)
Degree Days  
Heating Degree Days 22    
Moisture  
Dew Point 28 °F    
Average Humidity 52    
Maximum Humidity 67    
Minimum Humidity 34    
Precipitation  
Precipitation 0.00 in - - ()
Sea Level Pressure  
Sea Level Pressure 30.00 in    
Wind  
Wind Speed 6 mph (WNW)    
Max Wind Speed 15 mph    
Max Gust Speed 17 mph    
Visibility 10 miles    
Events      
Averages and records for this station are not official NWS values.
T = Trace of Precipitation, MM = Missing Value Source: NWS Daily Summary

Daily Weather History Graph

Daily Weather History Graph

Search for Another Location

Airport or City:

Trip Planner

Search our weather history database for the weather conditions in past years. The results will help you decide how hot, cold, wet, or windy it might be!

Date:

Astronomy

Oct. 25, 2011 Rise Set
Actual Time 7:50 AM MDT 6:32 PM MDT
Civil Twilight 7:22 AM MDT 7:00 PM MDT
Nautical Twilight 6:50 AM MDT 7:33 PM MDT
Astronomical Twilight 6:18 AM MDT 8:05 PM MDT
Moon 6:27 AM MDT 5:36 PM MDT
Length of Visible Light 11h 38m
Length of Day
10h 42m
Waning Crescent, 2% of the Moon is Illuminated
Oct 25
Waning Crescent
Oct 26
New
Nov 2
First Quarter
Nov 10
Full
Nov 18
Last Quarter

Hourly Weather History & Observations

Time (MDT) Temp. Windchill Dew Point Humidity Pressure Visibility Wind Dir Wind Speed Gust Speed Precip Events Conditions
12:55 AM 50.9 °F - 37.8 °F 61% 29.85 in 10.0 mi Calm Calm - N/A   Partly Cloudy
1:55 AM 49.3 °F - 37.9 °F 65% 29.87 in 10.0 mi NW 4.6 mph - N/A   Mostly Cloudy
2:55 AM 48.7 °F - 37.0 °F 64% 29.89 in 10.0 mi WNW 15.0 mph - N/A   Mostly Cloudy
3:29 AM 48.2 °F - 37.4 °F 66% 29.91 in 10.0 mi WNW 9.2 mph - N/A   Mostly Cloudy
3:55 AM 48.4 °F - 34.2 °F 58% 29.92 in 10.0 mi WNW 11.5 mph - N/A   Overcast
4:55 AM 46.4 °F - 31.3 °F 56% 29.94 in 10.0 mi Calm Calm - N/A   Overcast
5:06 AM 46.4 °F - 32.0 °F 57% 29.94 in 10.0 mi Calm Calm - N/A   Scattered Clouds
5:55 AM 44.8 °F 41.6 °F 33.4 °F 64% 29.94 in 10.0 mi South 5.8 mph - N/A   Mostly Cloudy
6:55 AM 44.2 °F 38.4 °F 31.1 °F 60% 29.96 in 10.0 mi WNW 11.5 mph - N/A   Mostly Cloudy
7:55 AM 41.7 °F 34.8 °F 25.9 °F 53% 29.99 in 10.0 mi West 12.7 mph - N/A   Mostly Cloudy
8:55 AM 40.8 °F 34.5 °F 26.1 °F 56% 30.03 in 10.0 mi North 10.4 mph 17.3 mph N/A   Overcast
9:55 AM 41.5 °F 36.4 °F 26.1 °F 54% 30.03 in 10.0 mi NNW 8.1 mph - N/A   Overcast
10:55 AM 43.5 °F 40.1 °F 25.5 °F 49% 30.04 in 10.0 mi North 5.8 mph - N/A   Mostly Cloudy
11:55 AM 45.7 °F 42.7 °F 26.4 °F 47% 30.05 in 10.0 mi NNW 5.8 mph - N/A   Mostly Cloudy
12:55 PM 46.2 °F 41.7 °F 26.2 °F 46% 30.05 in 10.0 mi NNW 9.2 mph - N/A   Mostly Cloudy
1:55 PM 47.7 °F - 24.8 °F 41% 30.03 in 10.0 mi NW 6.9 mph - N/A   Mostly Cloudy
2:10 PM 48.2 °F - 24.8 °F 40% 30.02 in 10.0 mi NNW 6.9 mph - N/A   Mostly Cloudy
2:55 PM 49.1 °F - 21.7 °F 34% 30.02 in 10.0 mi NW 8.1 mph - N/A   Scattered Clouds
3:55 PM 48.9 °F - 21.7 °F 34% 30.01 in 10.0 mi WNW 6.9 mph - N/A   Partly Cloudy
4:55 PM 48.0 °F - 21.4 °F 35% 30.03 in 10.0 mi WNW 5.8 mph - N/A   Clear
5:55 PM 46.4 °F 44.3 °F 22.5 °F 39% 30.03 in 10.0 mi West 4.6 mph - N/A   Clear
6:55 PM 44.8 °F 42.4 °F 25.0 °F 46% 30.05 in 10.0 mi West 4.6 mph - N/A   Clear
7:55 PM 41.9 °F 39.0 °F 24.4 °F 50% 30.08 in 10.0 mi West 4.6 mph - N/A   Clear
8:55 PM 42.4 °F 39.6 °F 25.0 °F 50% 30.08 in 10.0 mi West 4.6 mph - N/A   Clear
9:55 PM 40.3 °F 35.5 °F 27.5 °F 60% 30.08 in 10.0 mi WNW 6.9 mph - N/A   Clear
10:55 PM 37.8 °F 35.3 °F 27.5 °F 67% 30.08 in 10.0 mi WNW 3.5 mph - N/A   Clear
11:55 PM 37.8 °F - 25.9 °F 62% 30.11 in 10.0 mi Calm Calm - N/A   Clear